{"data":{"norad_id":48681,"intl_designator":"2021-044AV","name":"STARLINK-2725","alt_names":[],"object_type":"PAYLOAD","status":"ACTIVE","operator":null,"country":"US","launch_date":"2021-05-26","launch_site_code":"AFETR","launch_vehicle":null,"mission":null,"orbit_class":"UNKNOWN","rcs_meters":null,"size_class":null,"mass_kg":null,"dimensions":null,"purposes":["comms"],"wikipedia_slug":null,"has_3d_model":false,"image_url":null,"decayed_at":null,"tle_current":{"epoch":"2026-09-19T10:41:15.382752Z","epoch_age_seconds":132497,"freshness":"FRESH","line1":"1 48681U 21044AV  26262.44531693  .00002380  00000+0  88398-4 0  9993","line2":"2 48681  53.1590 253.9170 0001285  77.5110 282.6035 15.31711265294043","mean_motion":15.31711265,"eccentricity":0.0001285,"inclination_deg":53.159,"raan_deg":253.917,"arg_perigee_deg":77.511,"mean_anomaly_deg":282.6035,"bstar":8.8398e-5,"rev_number":29404,"period_min":94.012496539287,"perigee_km":469.8263386738,"apogee_km":471.58649143147,"semimajor_km":6848.8434150526,"source":"CELESTRAK","updated_at":"2026-09-20T09:00:39.243000Z"}}}